Regional Weather Roundup
Issued by NWS

Home | Current Version | Previous Version | Graphics & Text | Print | Product List | Glossary On
Versions: 1 2 3 4 5 6 7 8 9 10 11 12 13 14 15 16 17 18 19 20 21 22 23 24 25 26 27 28 29 30 31 32 33 34 35 36 37 38 39 40 41 42 43 44 45 46 47 48 49 50
033
ASUS43 KLMK 220410
RWRKY
KENTUCKY REGIONAL WEATHER ROUNDUP
NATIONAL WEATHER SERVICE LOUISVILLE KY
1200 AM EDT MON MAY 22 2017

NOTE "FAIR" INDICATES FEW OR NO CLOUDS BELOW 12,000 FEET
WITH NO SIGNIFICANT WEATHER AND/OR OBSTRUCTIONS TO VISIBILITY.

KYZ001>023-026-027-061>063-070>075-220500-
WESTERN AND SOUTH CENTRAL KENTUCKY

CITY           SKY/WX    TMP DP  RH WIND       PRES   REMARKS
PADUCAH        CLEAR     63  51  65 N6        30.11R
HENDERSON      CLEAR     63  52  67 NW5       30.11R
OWENSBORO      PTCLDY    65  54  67 NW8       30.10R
HOPKINSVILLE   CLOUDY    66  54  65 NW3       30.09S
BOWLING GREEN  PTCLDY    68  56  65 NW5       30.07F
GLASGOW        MOCLDY    66  58  74 CALM      30.07F
$$

KYZ024-025-028>034-038-045-046-053-220500-
NORTH CENTRAL KENTUCKY

CITY           SKY/WX    TMP DP  RH WIND       PRES   REMARKS
LOUISVILLE/SDF PTCLDY    66  53  63 NW7       30.07R
LOUISVILLE/LOU CLEAR     68  54  60 NW10      30.07R
FORT KNOX      CLEAR     63  54  72 NW6       30.06S
$$

KYZ035>037-039>044-047>052-055>060-089>105-220500-
NORTHEAST KENTUCKY

CITY           SKY/WX    TMP DP  RH WIND       PRES   REMARKS
LEXINGTON      CLOUDY    65  62  90 W3        30.07R
COVINGTON      PTCLDY    62  55  77 W10       30.05R
FRANKFORT      CLOUDY    64  56  75 W6        30.06R
$$

KYZ054-064>069-076>088-106>120-220500-
SOUTHEAST KENTUCKY

CITY           SKY/WX    TMP DP  RH WIND       PRES   REMARKS
JACKSON        PTCLDY    67  63  87 CALM      30.07S
LONDON         LGT RAIN  65  62  90 SW3       30.08F
SOMERSET       HVY RAIN  63  63 100 W3        30.10R
MIDDLESBORO    PTCLDY    65  65  99 SW3       30.10S
MONTICELLO     NOT AVBL
$$





USA.gov is the U.S. government's official web portal to all federal, state and local government web resources and services.